Year,Month,Day,Hour,Minute,Value (Times are PST for temperature in C)
2011,03,29,10,13,6.70
2011,03,29,10,14,6.70
2011,03,29,10,15,6.70
2011,03,29,10,16,6.70
2011,03,29,10,17,6.70
2011,03,29,10,18,6.70
2011,03,29,10,19,6.80
2011,03,29,10,20,6.80
2011,03,29,10,21,6.80
2011,03,29,10,22,6.80
2011,03,29,10,23,6.80
2011,03,29,10,24,6.80
2011,03,29,10,25,6.80
2011,03,29,10,26,6.80
2011,03,29,10,27,6.80
2011,03,29,10,28,6.80
2011,03,29,10,29,6.80
2011,03,29,10,30,6.80
2011,03,29,10,31,6.80
2011,03,29,10,32,6.80
2011,03,29,10,33,6.80
2011,03,29,10,34,6.80
2011,03,29,10,35,6.80
2011,03,29,10,36,6.80
2011,03,29,10,37,6.80
2011,03,29,10,38,6.80
2011,03,29,10,39,6.80
2011,03,29,10,40,6.80
2011,03,29,10,41,6.80
2011,03,29,10,42,6.80
2011,03,29,10,43,6.80
2011,03,29,10,44,6.80
2011,03,29,10,45,6.80
2011,03,29,10,46,6.80
2011,03,29,10,47,6.80
2011,03,29,10,48,6.80
2011,03,29,10,49,6.80
2011,03,29,10,50,6.80
2011,03,29,10,51,6.80
2011,03,29,10,52,6.90
2011,03,29,10,53,6.90
2011,03,29,10,54,7.00
2011,03,29,10,55,7.00
2011,03,29,10,56,7.00
2011,03,29,10,57,7.10
2011,03,29,10,58,7.10
2011,03,29,10,59,7.10
2011,03,29,11,00,7.10
2011,03,29,11,01,7.10
2011,03,29,11,02,7.20
2011,03,29,11,03,7.20
2011,03,29,11,04,7.20
2011,03,29,11,05,7.20
2011,03,29,11,06,7.20
2011,03,29,11,07,7.20
2011,03,29,11,08,7.20
2011,03,29,11,09,7.20
2011,03,29,11,10,7.20
2011,03,29,11,11,7.20
2011,03,29,11,12,7.20
2011,03,29,11,13,7.20
2011,03,29,11,14,7.30
2011,03,29,11,15,7.30
2011,03,29,11,16,7.30
2011,03,29,11,17,7.30
2011,03,29,11,18,7.30
2011,03,29,11,19,7.30
2011,03,29,11,20,7.30
2011,03,29,11,21,7.30
2011,03,29,11,22,7.30
2011,03,29,11,23,7.30
2011,03,29,11,24,7.30
2011,03,29,11,25,7.30
2011,03,29,11,26,7.30
2011,03,29,11,27,7.30
2011,03,29,11,28,7.30
2011,03,29,11,29,7.20
2011,03,29,11,30,7.20
2011,03,29,11,31,7.20
2011,03,29,11,32,7.20
2011,03,29,11,33,7.20
2011,03,29,11,34,7.20
2011,03,29,11,35,7.20
2011,03,29,11,36,7.20
2011,03,29,11,37,7.10
2011,03,29,11,38,7.10
2011,03,29,11,39,7.10
2011,03,29,11,40,7.10
2011,03,29,11,41,7.10
2011,03,29,11,42,7.10
2011,03,29,11,43,7.10
2011,03,29,11,44,7.10
2011,03,29,11,45,7.10
2011,03,29,11,46,7.10
2011,03,29,11,47,7.20
2011,03,29,11,48,7.20
2011,03,29,11,49,7.20
2011,03,29,11,50,7.20
2011,03,29,11,51,7.20
2011,03,29,11,52,7.20
2011,03,29,11,53,7.20
2011,03,29,11,54,7.20
2011,03,29,11,55,7.20
2011,03,29,11,56,7.20
2011,03,29,11,57,7.20
2011,03,29,11,58,7.20
2011,03,29,11,59,7.20
2011,03,29,12,00,7.20
2011,03,29,12,01,7.20
2011,03,29,12,02,7.20
2011,03,29,12,03,7.20
2011,03,29,12,04,7.20
2011,03,29,12,05,7.20
2011,03,29,12,06,7.30
2011,03,29,12,07,7.30
2011,03,29,12,08,7.30
2011,03,29,12,09,7.30
2011,03,29,12,10,7.30
2011,03,29,12,11,7.40
2011,03,29,12,12,7.40
2011,03,29,12,13,7.40
2011,03,29,12,14,7.40
2011,03,29,12,15,7.30
2011,03,29,12,16,7.30
2011,03,29,12,17,7.30
2011,03,29,12,18,7.30
2011,03,29,12,19,7.30
2011,03,29,12,20,7.30
2011,03,29,12,21,7.30
2011,03,29,12,22,7.30
2011,03,29,12,23,7.30
2011,03,29,12,24,7.30
2011,03,29,12,25,7.20
2011,03,29,12,26,7.20
2011,03,29,12,27,7.20
2011,03,29,12,28,7.20
2011,03,29,12,29,7.20
2011,03,29,12,30,7.20
2011,03,29,12,31,7.20
2011,03,29,12,32,7.30
2011,03,29,12,33,7.30
2011,03,29,12,34,7.30
2011,03,29,12,35,7.30
2011,03,29,12,36,7.30
2011,03,29,12,37,7.30
2011,03,29,12,38,7.40
2011,03,29,12,39,7.40
2011,03,29,12,40,7.40
2011,03,29,12,41,7.40
2011,03,29,12,42,7.50
2011,03,29,12,43,7.50
2011,03,29,12,44,7.50
2011,03,29,12,45,7.50
2011,03,29,12,46,7.50
2011,03,29,12,47,7.50
2011,03,29,12,48,7.50
2011,03,29,12,49,7.50
2011,03,29,12,50,7.60
2011,03,29,12,51,7.60
2011,03,29,12,52,7.60
2011,03,29,12,53,7.60
2011,03,29,12,54,7.60
2011,03,29,12,55,7.60
2011,03,29,12,56,7.60
2011,03,29,12,57,7.60
2011,03,29,12,58,7.60
2011,03,29,12,59,7.60
2011,03,29,13,00,7.60
2011,03,29,13,01,7.60
2011,03,29,13,02,7.60
2011,03,29,13,03,7.60
2011,03,29,13,04,7.60
2011,03,29,13,05,7.50
2011,03,29,13,06,7.60
2011,03,29,13,07,7.50
2011,03,29,13,08,7.60
2011,03,29,13,09,7.60
2011,03,29,13,10,7.60
2011,03,29,13,11,7.60
2011,03,29,13,12,7.60
2011,03,29,13,13,7.60
2011,03,29,13,14,7.60
2011,03,29,13,15,7.70
2011,03,29,13,16,7.70
2011,03,29,13,17,7.70
2011,03,29,13,18,7.70
2011,03,29,13,19,7.70
2011,03,29,13,20,7.70
2011,03,29,13,21,7.70
2011,03,29,13,22,7.70
2011,03,29,13,23,7.70
2011,03,29,13,24,7.70
2011,03,29,13,25,7.70
2011,03,29,13,26,7.70
2011,03,29,13,27,7.70
2011,03,29,13,28,7.70
2011,03,29,13,29,7.70
2011,03,29,13,30,7.70
2011,03,29,13,31,7.70
2011,03,29,13,32,7.70
2011,03,29,13,33,7.70
2011,03,29,13,34,7.70
2011,03,29,13,35,7.70
2011,03,29,13,36,7.70
2011,03,29,13,37,7.70
2011,03,29,13,38,7.70
2011,03,29,13,39,7.70
2011,03,29,13,40,7.70
2011,03,29,13,41,7.70
2011,03,29,13,42,7.70
2011,03,29,13,43,7.70
2011,03,29,13,44,7.80
2011,03,29,13,45,7.80
2011,03,29,13,46,7.80
2011,03,29,13,47,7.80
2011,03,29,13,48,7.80
2011,03,29,13,49,7.90
2011,03,29,13,50,7.90
2011,03,29,13,51,7.90
2011,03,29,13,52,7.90
2011,03,29,13,53,7.90
2011,03,29,13,54,7.90
2011,03,29,13,55,8.00
2011,03,29,13,56,8.00
2011,03,29,13,57,8.00
2011,03,29,13,58,8.00
2011,03,29,13,59,8.00
2011,03,29,14,00,8.00
2011,03,29,14,01,8.10
2011,03,29,14,02,8.10
2011,03,29,14,03,8.10
2011,03,29,14,04,8.10
2011,03,29,14,05,8.10
2011,03,29,14,06,8.10
2011,03,29,14,07,8.10
2011,03,29,14,08,8.10
2011,03,29,14,09,8.10
2011,03,29,14,10,8.10
2011,03,29,14,11,8.10
2011,03,29,14,12,8.20
2011,03,29,14,13,8.20
2011,03,29,14,14,8.20
2011,03,29,14,15,8.20
2011,03,29,14,16,8.20
2011,03,29,14,17,8.20
2011,03,29,14,18,8.30
2011,03,29,14,19,8.30
2011,03,29,14,20,8.30
2011,03,29,14,21,8.30
2011,03,29,14,22,8.30
2011,03,29,14,23,8.40
2011,03,29,14,24,8.40
2011,03,29,14,25,8.40
2011,03,29,14,26,8.40
2011,03,29,14,27,8.50
2011,03,29,14,28,8.50
2011,03,29,14,29,8.60
2011,03,29,14,30,8.60
2011,03,29,14,31,8.60
2011,03,29,14,32,8.60
2011,03,29,14,33,8.70
2011,03,29,14,34,8.70
2011,03,29,14,35,8.70
2011,03,29,14,36,8.70
2011,03,29,14,37,8.70
2011,03,29,14,38,8.80
2011,03,29,14,39,8.80
2011,03,29,14,40,8.80
2011,03,29,14,41,8.80
2011,03,29,14,42,8.80
2011,03,29,14,43,8.80
2011,03,29,14,44,8.80
2011,03,29,14,45,8.80
2011,03,29,14,46,8.80
2011,03,29,14,47,8.80
2011,03,29,14,48,8.80
2011,03,29,14,49,8.80
2011,03,29,14,50,8.80
2011,03,29,14,51,8.90
2011,03,29,14,52,8.90
2011,03,29,14,53,8.90
2011,03,29,14,54,8.90
2011,03,29,14,55,8.90
2011,03,29,14,56,8.90
2011,03,29,14,57,8.90
2011,03,29,14,58,8.90
2011,03,29,14,59,8.90
2011,03,29,15,00,8.90
2011,03,29,15,01,8.90
2011,03,29,15,02,8.90
2011,03,29,15,03,8.90
2011,03,29,15,04,8.90
2011,03,29,15,05,8.90
2011,03,29,15,06,8.90
2011,03,29,15,07,8.90
2011,03,29,15,08,8.90
2011,03,29,15,09,8.90
2011,03,29,15,10,8.90
2011,03,29,15,11,8.90
2011,03,29,15,12,8.90
2011,03,29,15,13,8.90
2011,03,29,15,14,8.90
2011,03,29,15,15,8.90
2011,03,29,15,16,8.80
2011,03,29,15,17,8.80
2011,03,29,15,18,8.80
2011,03,29,15,19,8.80
2011,03,29,15,20,8.80
2011,03,29,15,21,8.80
2011,03,29,15,22,8.80
2011,03,29,15,23,8.80
2011,03,29,15,24,8.80
2011,03,29,15,25,8.80
2011,03,29,15,26,8.80
2011,03,29,15,27,8.80
2011,03,29,15,28,8.80
2011,03,29,15,29,8.80
2011,03,29,15,30,8.80
2011,03,29,15,31,8.80
2011,03,29,15,32,8.80
2011,03,29,15,33,8.80
2011,03,29,15,34,8.80
2011,03,29,15,35,8.80
2011,03,29,15,36,8.80
2011,03,29,15,37,8.80
2011,03,29,15,38,8.80
2011,03,29,15,39,8.80
2011,03,29,15,40,8.80
2011,03,29,15,41,8.90
2011,03,29,15,42,8.90
2011,03,29,15,43,8.90
2011,03,29,15,44,8.90
2011,03,29,15,45,8.90
2011,03,29,15,46,8.90
2011,03,29,15,47,9.00
2011,03,29,15,48,9.00
2011,03,29,15,49,9.00
2011,03,29,15,50,9.00
2011,03,29,15,51,8.90
2011,03,29,15,52,8.90
2011,03,29,15,53,8.90
2011,03,29,15,54,8.90
2011,03,29,15,55,8.90
2011,03,29,15,56,8.90
2011,03,29,15,57,8.90
2011,03,29,15,58,8.90
2011,03,29,15,59,8.80
2011,03,29,16,00,8.80
2011,03,29,16,01,8.80
2011,03,29,16,02,8.80
2011,03,29,16,03,8.80
2011,03,29,16,04,8.80
2011,03,29,16,05,8.80
2011,03,29,16,06,8.80
2011,03,29,16,07,8.80
2011,03,29,16,08,8.80
2011,03,29,16,09,8.80
2011,03,29,16,10,8.70
2011,03,29,16,11,8.70
2011,03,29,16,12,8.70
2011,03,29,16,13,8.70
2011,03,29,16,14,8.60
2011,03,29,16,15,8.60
2011,03,29,16,16,8.60
2011,03,29,16,17,8.60
2011,03,29,16,18,8.60
2011,03,29,16,19,8.60
2011,03,29,16,20,8.50
2011,03,29,16,21,8.50
2011,03,29,16,22,8.50
2011,03,29,16,23,8.40
2011,03,29,16,24,8.40
2011,03,29,16,25,8.40
2011,03,29,16,26,8.40
2011,03,29,16,27,8.40
2011,03,29,16,28,8.30
2011,03,29,16,29,8.30
2011,03,29,16,30,8.30
2011,03,29,16,31,8.30
2011,03,29,16,32,8.30
2011,03,29,16,33,8.30
2011,03,29,16,34,8.30
2011,03,29,16,35,8.30
2011,03,29,16,36,8.20
2011,03,29,16,37,8.30
2011,03,29,16,38,8.20
2011,03,29,16,39,8.20
2011,03,29,16,40,8.20
2011,03,29,16,41,8.30
2011,03,29,16,42,8.30
2011,03,29,16,43,8.30
2011,03,29,16,44,8.30
2011,03,29,16,45,8.30
2011,03,29,16,46,8.30
2011,03,29,16,47,8.20
2011,03,29,16,48,8.20
2011,03,29,16,49,8.20
2011,03,29,16,50,8.20
2011,03,29,16,51,8.20
2011,03,29,16,52,8.20
2011,03,29,16,53,8.20
2011,03,29,16,54,8.20
2011,03,29,16,55,8.10
2011,03,29,16,56,8.10
2011,03,29,16,57,8.10
2011,03,29,16,58,8.10
2011,03,29,16,59,8.10
2011,03,29,17,00,8.10
2011,03,29,17,01,8.10
2011,03,29,17,02,8.10
2011,03,29,17,03,8.00
2011,03,29,17,04,8.00
2011,03,29,17,05,7.90
2011,03,29,17,06,7.90
2011,03,29,17,07,7.90
2011,03,29,17,08,7.80
2011,03,29,17,09,7.80
2011,03,29,17,10,7.80
2011,03,29,17,11,7.70
2011,03,29,17,12,7.70
2011,03,29,17,13,7.60
2011,03,29,17,14,7.60
2011,03,29,17,15,7.60
2011,03,29,17,16,7.50
2011,03,29,17,17,7.50
2011,03,29,17,18,7.40
2011,03,29,17,19,7.40
2011,03,29,17,20,7.40
2011,03,29,17,21,7.40
2011,03,29,17,22,7.40
2011,03,29,17,23,7.40
2011,03,29,17,24,7.40
2011,03,29,17,25,7.40
2011,03,29,17,26,7.40
2011,03,29,17,27,7.40
2011,03,29,17,28,7.40
2011,03,29,17,29,7.40
2011,03,29,17,30,7.40
2011,03,29,17,31,7.40
2011,03,29,17,32,7.40
2011,03,29,17,33,7.40
2011,03,29,17,34,7.40
2011,03,29,17,35,7.40
2011,03,29,17,36,7.40
2011,03,29,17,37,7.40
2011,03,29,17,38,7.40
2011,03,29,17,39,7.40
2011,03,29,17,40,7.40
2011,03,29,17,41,7.40
2011,03,29,17,42,7.40
2011,03,29,17,43,7.40
2011,03,29,17,44,7.40
2011,03,29,17,45,7.40
2011,03,29,17,46,7.40
2011,03,29,17,47,7.40
2011,03,29,17,48,7.40
2011,03,29,17,49,7.40
2011,03,29,17,50,7.40
2011,03,29,17,51,7.40
2011,03,29,17,52,7.30
2011,03,29,17,53,7.30
2011,03,29,17,54,7.30
2011,03,29,17,55,7.30
2011,03,29,17,56,7.30
2011,03,29,17,57,7.30
2011,03,29,17,58,7.30
2011,03,29,17,59,7.30
2011,03,29,18,00,7.30
2011,03,29,18,01,7.30
2011,03,29,18,02,7.30
2011,03,29,18,03,7.30
2011,03,29,18,04,7.30
2011,03,29,18,05,7.30
2011,03,29,18,06,7.30
2011,03,29,18,07,7.30
2011,03,29,18,08,7.30
2011,03,29,18,09,7.30
2011,03,29,18,10,7.30
2011,03,29,18,11,7.30
2011,03,29,18,12,7.30
2011,03,29,18,13,7.30
2011,03,29,18,14,7.30
2011,03,29,18,15,7.30
2011,03,29,18,16,7.30
2011,03,29,18,17,7.30
2011,03,29,18,18,7.30
2011,03,29,18,19,7.30
2011,03,29,18,20,7.30
2011,03,29,18,21,7.30
2011,03,29,18,22,7.30
2011,03,29,18,23,7.30
2011,03,29,18,24,7.30
2011,03,29,18,25,7.30
2011,03,29,18,26,7.30
2011,03,29,18,27,7.30
2011,03,29,18,28,7.30
2011,03,29,18,29,7.30
2011,03,29,18,30,7.30
2011,03,29,18,31,7.30
2011,03,29,18,32,7.30
2011,03,29,18,33,7.30
2011,03,29,18,34,7.20
2011,03,29,18,35,7.20
2011,03,29,18,36,7.20
2011,03,29,18,37,7.20
2011,03,29,18,38,7.20
2011,03,29,18,39,7.20
2011,03,29,18,40,7.20
2011,03,29,18,41,7.20
2011,03,29,18,42,7.20
2011,03,29,18,43,7.20
2011,03,29,18,44,7.20
2011,03,29,18,45,7.20
2011,03,29,18,46,7.20
2011,03,29,18,47,7.20
2011,03,29,18,48,7.20
2011,03,29,18,49,7.20
2011,03,29,18,50,7.20
2011,03,29,18,51,7.20
2011,03,29,18,52,7.20
2011,03,29,18,53,7.20
2011,03,29,18,54,7.20
2011,03,29,18,55,7.20
2011,03,29,18,56,7.20
2011,03,29,18,57,7.20
2011,03,29,18,58,7.20
2011,03,29,18,59,7.20
2011,03,29,19,00,7.20
2011,03,29,19,01,7.20
2011,03,29,19,02,7.20
2011,03,29,19,03,7.20
2011,03,29,19,04,7.20
2011,03,29,19,05,7.20
2011,03,29,19,06,7.20
2011,03,29,19,07,7.10
2011,03,29,19,08,7.10
2011,03,29,19,09,7.10
2011,03,29,19,10,7.10
2011,03,29,19,11,7.10
2011,03,29,19,12,7.10
2011,03,29,19,13,7.10
2011,03,29,19,14,7.00
2011,03,29,19,15,7.00
2011,03,29,19,16,7.00
2011,03,29,19,17,7.00
2011,03,29,19,18,7.00
2011,03,29,19,19,7.00
2011,03,29,19,20,6.90
2011,03,29,19,21,6.90
2011,03,29,19,22,6.90
2011,03,29,19,23,6.90
2011,03,29,19,24,6.90
2011,03,29,19,25,6.90
2011,03,29,19,26,6.90
2011,03,29,19,27,6.80
2011,03,29,19,28,6.80
2011,03,29,19,29,6.80
2011,03,29,19,30,6.80
2011,03,29,19,31,6.80
2011,03,29,19,32,6.80
2011,03,29,19,33,6.80
2011,03,29,19,34,6.80
2011,03,29,19,35,6.70
2011,03,29,19,36,6.70
2011,03,29,19,37,6.70
2011,03,29,19,38,6.70
2011,03,29,19,39,6.70
2011,03,29,19,40,6.70
2011,03,29,19,41,6.70
2011,03,29,19,42,6.70
2011,03,29,19,43,6.70
2011,03,29,19,44,6.70
2011,03,29,19,45,6.60
2011,03,29,19,46,6.60
2011,03,29,19,47,6.60
2011,03,29,19,48,6.60
2011,03,29,19,49,6.60
2011,03,29,19,50,6.60
2011,03,29,19,51,6.60
2011,03,29,19,52,6.60
2011,03,29,19,53,6.60
2011,03,29,19,54,6.60
2011,03,29,19,55,6.60
2011,03,29,19,56,6.60
2011,03,29,19,57,6.60
2011,03,29,19,58,6.60
2011,03,29,19,59,6.60
2011,03,29,20,00,6.60
2011,03,29,20,01,6.60
2011,03,29,20,02,6.60
2011,03,29,20,03,6.60
2011,03,29,20,04,6.60
2011,03,29,20,05,6.60
2011,03,29,20,06,6.60
2011,03,29,20,07,6.50
2011,03,29,20,08,6.50
2011,03,29,20,09,6.50
2011,03,29,20,10,6.50
2011,03,29,20,11,6.50
2011,03,29,20,12,6.50
2011,03,29,20,13,6.50
2011,03,29,20,14,6.50
2011,03,29,20,15,6.50
2011,03,29,20,16,6.50
2011,03,29,20,17,6.50
2011,03,29,20,18,6.50
2011,03,29,20,19,6.40
2011,03,29,20,20,6.40
2011,03,29,20,21,6.40
2011,03,29,20,22,6.40
2011,03,29,20,23,6.40
2011,03,29,20,24,6.40
2011,03,29,20,25,6.40
2011,03,29,20,26,6.40
2011,03,29,20,27,6.40
2011,03,29,20,28,6.40
2011,03,29,20,29,6.40
2011,03,29,20,30,6.40
2011,03,29,20,31,6.40
2011,03,29,20,32,6.40
2011,03,29,20,33,6.40
2011,03,29,20,34,6.40
2011,03,29,20,35,6.40
2011,03,29,20,36,6.40
2011,03,29,20,37,6.30
2011,03,29,20,38,6.30
2011,03,29,20,39,6.30
2011,03,29,20,40,6.30
2011,03,29,20,41,6.30
2011,03,29,20,42,6.30
2011,03,29,20,43,6.30
2011,03,29,20,44,6.30
2011,03,29,20,45,6.30
2011,03,29,20,46,6.30
2011,03,29,20,47,6.30
2011,03,29,20,48,6.30
2011,03,29,20,49,6.30
2011,03,29,20,50,6.30
2011,03,29,20,51,6.30
2011,03,29,20,52,6.30
2011,03,29,20,53,6.30
2011,03,29,20,54,6.30
2011,03,29,20,55,6.30
2011,03,29,20,56,6.30
2011,03,29,20,57,6.30
2011,03,29,20,58,6.30
2011,03,29,20,59,6.30
2011,03,29,21,00,6.30
2011,03,29,21,01,6.30
2011,03,29,21,02,6.30
2011,03,29,21,03,6.30
2011,03,29,21,04,6.30
2011,03,29,21,05,6.30
2011,03,29,21,06,6.30
2011,03,29,21,07,6.30
2011,03,29,21,08,6.30
2011,03,29,21,09,6.30
2011,03,29,21,10,6.30
2011,03,29,21,11,6.30
2011,03,29,21,12,6.20
2011,03,29,21,13,6.20
2011,03,29,21,14,6.20
2011,03,29,21,15,6.20
2011,03,29,21,16,6.20
2011,03,29,21,17,6.20
2011,03,29,21,18,6.20
2011,03,29,21,19,6.20
2011,03,29,21,20,6.20
2011,03,29,21,21,6.20
2011,03,29,21,22,6.20
2011,03,29,21,23,6.20
2011,03,29,21,24,6.20
2011,03,29,21,25,6.20
2011,03,29,21,26,6.20
2011,03,29,21,27,6.20
2011,03,29,21,28,6.20
2011,03,29,21,29,6.20
2011,03,29,21,30,6.20
2011,03,29,21,31,6.20
2011,03,29,21,32,6.20
2011,03,29,21,33,6.10
2011,03,29,21,34,6.10
2011,03,29,21,35,6.10
2011,03,29,21,36,6.10
2011,03,29,21,37,6.10
2011,03,29,21,38,6.10
2011,03,29,21,39,6.10
2011,03,29,21,40,6.10
2011,03,29,21,41,6.10
2011,03,29,21,42,6.10
2011,03,29,21,43,6.10
2011,03,29,21,44,6.10
2011,03,29,21,45,6.10
2011,03,29,21,46,6.10
2011,03,29,21,47,6.10
2011,03,29,21,48,6.10
2011,03,29,21,49,6.10
2011,03,29,21,50,6.10
2011,03,29,21,51,6.10
2011,03,29,21,52,6.10
2011,03,29,21,53,6.00
2011,03,29,21,54,6.00
2011,03,29,21,55,6.00
2011,03,29,21,56,6.00
2011,03,29,21,57,6.00
2011,03,29,21,58,6.00
2011,03,29,21,59,6.00
2011,03,29,22,00,6.00
2011,03,29,22,01,6.00
2011,03,29,22,02,6.00
2011,03,29,22,03,6.00
2011,03,29,22,04,6.00
2011,03,29,22,05,6.00
2011,03,29,22,06,6.00
2011,03,29,22,07,6.00
2011,03,29,22,08,6.00
2011,03,29,22,09,6.00
2011,03,29,22,10,6.00
2011,03,29,22,11,6.00
2011,03,29,22,12,6.00
2011,03,29,22,13,6.00
2011,03,29,22,14,6.00
2011,03,29,22,15,6.00
2011,03,29,22,16,6.00
2011,03,29,22,17,6.00
2011,03,29,22,18,6.00
2011,03,29,22,19,6.00
2011,03,29,22,20,6.00
2011,03,29,22,21,6.10
2011,03,29,22,22,6.10
2011,03,29,22,23,6.00
2011,03,29,22,24,6.10
2011,03,29,22,25,6.10
2011,03,29,22,26,6.10
2011,03,29,22,27,6.10
2011,03,29,22,28,6.10
2011,03,29,22,29,6.10
2011,03,29,22,30,6.00
2011,03,29,22,31,6.10
2011,03,29,22,32,6.10
2011,03,29,22,33,6.10
2011,03,29,22,34,6.10
2011,03,29,22,35,6.10
2011,03,29,22,36,6.10
2011,03,29,22,37,6.10
2011,03,29,22,38,6.10
2011,03,29,22,39,6.10
2011,03,29,22,40,6.10
2011,03,29,22,41,6.10
2011,03,29,22,42,6.20
2011,03,29,22,43,6.20
2011,03,29,22,44,6.20
2011,03,29,22,45,6.20
2011,03,29,22,46,6.20
2011,03,29,22,47,6.20
2011,03,29,22,48,6.20
2011,03,29,22,49,6.30
2011,03,29,22,50,6.30
2011,03,29,22,51,6.30
2011,03,29,22,52,6.40
2011,03,29,22,53,6.40
2011,03,29,22,54,6.40
2011,03,29,22,55,6.40
2011,03,29,22,56,6.40
2011,03,29,22,57,6.40
2011,03,29,22,58,6.30
2011,03,29,22,59,6.30
2011,03,29,23,00,6.30
2011,03,29,23,01,6.30
2011,03,29,23,02,6.30
2011,03,29,23,03,6.30
2011,03,29,23,04,6.30
2011,03,29,23,05,6.40
2011,03,29,23,06,6.40
2011,03,29,23,07,6.50
2011,03,29,23,08,6.60
2011,03,29,23,09,6.60
2011,03,29,23,10,6.70
2011,03,29,23,11,6.70
2011,03,29,23,12,6.70
2011,03,29,23,13,6.70
2011,03,29,23,14,6.70
2011,03,29,23,15,6.70
2011,03,29,23,16,6.70
2011,03,29,23,17,6.70
2011,03,29,23,18,6.70
2011,03,29,23,19,6.70
2011,03,29,23,20,6.60
2011,03,29,23,21,6.60
2011,03,29,23,22,6.60
2011,03,29,23,23,6.50
2011,03,29,23,24,6.50
2011,03,29,23,25,6.50
2011,03,29,23,26,6.40
2011,03,29,23,27,6.40
2011,03,29,23,28,6.40
2011,03,29,23,29,6.40
2011,03,29,23,30,6.50
2011,03,29,23,31,6.50
2011,03,29,23,32,6.50
2011,03,29,23,33,6.40
2011,03,29,23,34,6.40
2011,03,29,23,35,6.40
2011,03,29,23,36,6.40
2011,03,29,23,37,6.40
2011,03,29,23,38,6.50
2011,03,29,23,39,6.50
2011,03,29,23,40,6.50
2011,03,29,23,41,6.50
2011,03,29,23,42,6.50
2011,03,29,23,43,6.40
2011,03,29,23,44,6.40
2011,03,29,23,45,6.40
2011,03,29,23,46,6.40
2011,03,29,23,47,6.40
2011,03,29,23,48,6.30
2011,03,29,23,49,6.30
2011,03,29,23,50,6.30
2011,03,29,23,51,6.30
2011,03,29,23,52,6.30
2011,03,29,23,53,6.30
2011,03,29,23,54,6.30
2011,03,29,23,55,6.30
2011,03,29,23,56,6.30
2011,03,29,23,57,6.30
2011,03,29,23,58,6.30
2011,03,29,23,59,6.20
